| time (UTC) | temp F | wind direction | speed knots | gust knots | rain 1hr in | rain 24hr in | rain mn in | humidity % | barometer mb |
| 20260508080753 | 52 | 209 | 0.9 | 2.6 | 0.00 | 0.00 | 0.00 | 83 | 1014.8 |
| 20260508075753 | 51 | 209 | 1.7 | 3.5 | 0.00 | 0.00 | 0.00 | 85 | 1014.7 |
| 20260508075254 | 51 | 209 | 1.7 | 2.6 | 0.00 | 0.00 | 0.00 | 85 | 1014.7 |
| 20260508074754 | 51 | 209 | 0.9 | 3.5 | 0.00 | 0.00 | 0.00 | 86 | 1014.5 |
| 20260508074253 | 51 | 209 | 1.7 | 3.5 | 0.00 | 0.00 | 0.00 | 86 | 1014.5 |
| 20260508074014 | 51 | 209 | 1.7 | 2.6 | 0.00 | 0.00 | 0.00 | 86 | 1014.5 |
| 20260508073520 | 51 | 209 | 1.7 | 2.6 | 0.00 | 0.00 | 0.00 | 86 | 1014.4 |
| 20260508072752 | 51 | 209 | 0.0 | 2.6 | 0.00 | 0.00 | 0.00 | 86 | 1014.4 |
| 20260508072252 | 51 | 209 | 0.9 | 2.6 | 0.00 | 0.00 | 0.00 | 86 | 1014.3 |
| 20260508071752 | 51 | 209 | 0.9 | 2.6 | 0.00 | 0.00 | 0.00 | 87 | 1014.3 |
| 20260508071252 | 51 | 209 | 0.0 | 3.5 | 0.00 | 0.00 | 0.00 | 88 | 1014.2 |
| 20260508070752 | 51 | 209 | 1.7 | 3.5 | 0.00 | 0.00 | 0.00 | 88 | 1014.1 |
| 20260508070518 | 50 | 209 | 0.9 | 1.7 | 0.00 | 0.00 | 0.00 | 89 | 1014.2 |
| 20260508065751 | 50 | 209 | 0.9 | 2.6 | 0.00 | 0.00 | 0.00 | 90 | 1014.1 |
| 20260508065252 | 50 | 209 | 0.9 | 2.6 | 0.00 | 0.00 | 0.00 | 90 | 1014.1 |
| 20260508064751 | 49 | 209 | 0.9 | 3.5 | 0.00 | 0.00 | 0.00 | 91 | 1014.1 |
| 20260508064252 | 49 | 209 | 1.7 | 3.5 | 0.00 | 0.00 | 0.00 | 91 | 1013.9 |
| 20260508063751 | 49 | 209 | 0.9 | 2.6 | 0.00 | 0.00 | 0.00 | 93 | 1013.9 |
| 20260508063250 | 48 | 209 | 1.7 | 2.6 | 0.00 | 0.00 | 0.00 | 93 | 1013.8 |
| 20260508062750 | 48 | 209 | 0.0 | 0.0 | 0.00 | 0.00 | 0.00 | 94 | 1013.9 |
| 20260508062250 | 47 | 209 | 0.0 | 0.0 | 0.00 | 0.00 | 0.00 | 94 | 1013.8 |
| 20260508062014 | 47 | 209 | 0.0 | 0.0 | 0.00 | 0.00 | 0.00 | 94 | 1013.7 |
| 20260508061251 | 46 | 209 | 0.0 | 0.0 | 0.00 | 0.00 | 0.00 | 93 | 1013.7 |
| 20260508060751 | 46 | 209 | 0.0 | 1.7 | 0.00 | 0.00 | 0.00 | 94 | 1013.7 |
| 20260508060250 | 46 | 209 | 0.0 | 1.7 | 0.00 | 0.00 | 0.00 | 93 | 1013.7 |
| 20260508055750 | 45 | 209 | 0.9 | 1.7 | 0.00 | 0.00 | 0.00 | 93 | 1013.6 |
| 20260508055256 | 45 | 209 | 0.0 | 2.6 | 0.00 | 0.00 | 0.00 | 93 | 1013.7 |
| 20260508054754 | 45 | 209 | 1.7 | 2.6 | 0.00 | 0.00 | 0.00 | 93 | 1013.5 |
| 20260508054255 | 44 | 209 | 0.9 | 2.6 | 0.00 | 0.00 | 0.00 | 93 | 1013.5 |
| 20260508053750 | 44 | 209 | 0.9 | 2.6 | 0.00 | 0.00 | 0.00 | 93 | 1013.5 |
| 20260508053250 | 44 | 209 | 1.7 | 2.6 | 0.00 | 0.00 | 0.00 | 93 | 1013.5 |
| 20260508052749 | 44 | 209 | 0.9 | 1.7 | 0.00 | 0.00 | 0.00 | 93 | 1013.4 |
| 20260508052249 | 44 | 209 | 0.9 | 1.7 | 0.00 | 0.00 | 0.00 | 93 | 1013.3 |
| 20260508051749 | 44 | 209 | 0.9 | 1.7 | 0.00 | 0.00 | 0.00 | 93 | 1013.3 |
| 20260508051249 | 44 | 221 | 0.9 | 1.7 | 0.00 | 0.00 | 0.00 | 93 | 1013.2 |
| 20260508050749 | 44 | 224 | 0.9 | 1.7 | 0.00 | 0.00 | 0.00 | 93 | 1013.1 |
| 20260508050302 | 44 | 224 | 1.7 | 2.6 | 0.00 | 0.00 | 0.00 | 93 | 1013.1 |
| 20260508045749 | 43 | 224 | 1.7 | 3.5 | 0.00 | 0.00 | 0.00 | 93 | 1013.2 |
| 20260508045248 | 43 | 224 | 1.7 | 3.5 | 0.00 | 0.00 | 0.00 | 93 | 1013.3 |
| 20260508044748 | 43 | 231 | 1.7 | 2.6 | 0.00 | 0.00 | 0.00 | 93 | 1013.1 |
| 20260508044248 | 43 | 231 | 1.7 | 2.6 | 0.00 | 0.00 | 0.00 | 92 | 1013.1 |
| 20260508043748 | 42 | 231 | 1.7 | 2.6 | 0.00 | 0.00 | 0.00 | 92 | 1013.2 |
| 20260508043248 | 42 | 231 | 1.7 | 2.6 | 0.00 | 0.00 | 0.00 | 92 | 1013.3 |
| 20260508042748 | 42 | 231 | 1.7 | 2.6 | 0.00 | 0.00 | 0.00 | 92 | 1013.2 |
| 20260508042249 | 42 | 231 | 1.7 | 2.6 | 0.00 | 0.00 | 0.00 | 91 | 1013.1 |
| 20260508041747 | 41 | 231 | 1.7 | 2.6 | 0.00 | 0.00 | 0.00 | 91 | 1013.1 |
| 20260508041249 | 41 | 231 | 0.9 | 2.6 | 0.00 | 0.00 | 0.00 | 91 | 1013.1 |
| 20260508040748 | 41 | 231 | 1.7 | 1.7 | 0.00 | 0.00 | 0.00 | 91 | 1013.1 |
| 20260508040248 | 41 | 200 | 1.7 | 1.7 | 0.00 | 0.00 | 0.00 | 91 | 1013.1 |
| 20260508035749 | 41 | 200 | 1.7 | 2.6 | 0.00 | 0.00 | 0.00 | 91 | 1013.1 |
| 20260508035248 | 41 | 200 | 1.7 | 2.6 | 0.00 | 0.00 | 0.00 | 90 | 1013.0 |
| 20260508034747 | 42 | 200 | 1.7 | 3.5 | 0.00 | 0.00 | 0.00 | 90 | 1013.0 |
| 20260508034513 | 42 | 200 | 1.7 | 3.5 | 0.00 | 0.00 | 0.00 | 90 | 1012.9 |
| 20260508033745 | 42 | 200 | 1.7 | 2.6 | 0.00 | 0.00 | 0.00 | 90 | 1013.1 |
| 20260508033246 | 42 | 200 | 1.7 | 2.6 | 0.00 | 0.00 | 0.00 | 90 | 1013.0 |
| 20260508032747 | 42 | 200 | 0.9 | 1.7 | 0.00 | 0.00 | 0.00 | 90 | 1013.0 |
| 20260508031746 | 42 | 200 | 0.9 | 1.7 | 0.00 | 0.00 | 0.00 | 90 | 1012.9 |
| 20260508031246 | 42 | 200 | 0.9 | 1.7 | 0.00 | 0.00 | 0.00 | 90 | 1012.8 |
| 20260508031014 | 42 | 200 | 1.7 | 1.7 | 0.00 | 0.00 | 0.00 | 89 | 1012.9 |
| 20260508030246 | 43 | 200 | 0.9 | 1.7 | 0.00 | 0.00 | 0.00 | 89 | 1012.8 |
| 20260508025745 | 43 | 200 | 0.9 | 1.7 | 0.00 | 0.00 | 0.00 | 89 | 1012.9 |
| 20260508025245 | 43 | 200 | 0.9 | 0.9 | 0.00 | 0.00 | 0.00 | 89 | 1012.9 |
| 20260508024745 | 43 | 200 | 0.0 | 1.7 | 0.00 | 0.00 | 0.00 | 88 | 1012.9 |
| 20260508024245 | 43 | 200 | 0.0 | 1.7 | 0.00 | 0.00 | 0.00 | 88 | 1012.9 |
| 20260508023745 | 44 | 200 | 0.9 | 1.7 | 0.00 | 0.00 | 0.00 | 88 | 1012.8 |
| 20260508023245 | 44 | 200 | 0.9 | 1.7 | 0.00 | 0.00 | 0.00 | 88 | 1012.8 |
| 20260508022746 | 44 | 200 | 0.9 | 1.7 | 0.00 | 0.00 | 0.00 | 87 | 1012.8 |
| 20260508022244 | 44 | 200 | 0.9 | 1.7 | 0.00 | 0.00 | 0.00 | 87 | 1012.8 |
| 20260508021744 | 45 | 200 | 0.9 | 1.7 | 0.00 | 0.00 | 0.00 | 86 | 1012.8 |
| 20260508021511 | 45 | 200 | 0.0 | 2.6 | 0.00 | 0.00 | 0.00 | 86 | 1012.9 |
| 20260508020743 | 45 | 200 | 0.9 | 2.6 | 0.00 | 0.00 | 0.00 | 86 | 1012.8 |
| 20260508020511 | 46 | 200 | 0.9 | 1.7 | 0.00 | 0.00 | 0.00 | 86 | 1012.8 |
| 20260508015744 | 46 | 200 | 0.9 | 2.6 | 0.00 | 0.00 | 0.00 | 86 | 1012.8 |
| 20260508015244 | 46 | 200 | 0.9 | 3.5 | 0.00 | 0.00 | 0.00 | 86 | 1012.8 |
| 20260508014744 | 46 | 200 | 1.7 | 3.5 | 0.00 | 0.00 | 0.00 | 86 | 1012.8 |
| 20260508014244 | 47 | 200 | 1.7 | 3.5 | 0.00 | 0.00 | 0.00 | 85 | 1012.8 |
| 20260508013744 | 47 | 200 | 1.7 | 3.5 | 0.00 | 0.00 | 0.00 | 85 | 1012.8 |
| 20260508013243 | 47 | 200 | 1.7 | 3.5 | 0.00 | 0.00 | 0.00 | 85 | 1012.8 |
| 20260508012744 | 47 | 200 | 1.7 | 2.6 | 0.00 | 0.00 | 0.00 | 84 | 1012.8 |
| 20260508012244 | 48 | 200 | 1.7 | 2.6 | 0.00 | 0.00 | 0.00 | 84 | 1012.8 |
| 20260508011743 | 48 | 200 | 1.7 | 3.5 | 0.00 | 0.00 | 0.00 | 84 | 1012.8 |
| 20260508011242 | 48 | 200 | 1.7 | 3.5 | 0.00 | 0.00 | 0.00 | 84 | 1012.8 |
| 20260508010743 | 48 | 200 | 1.7 | 3.5 | 0.00 | 0.00 | 0.00 | 84 | 1012.8 |
| 20260508010243 | 49 | 200 | 1.7 | 3.5 | 0.00 | 0.00 | 0.00 | 84 | 1012.9 |
| 20260508005743 | 49 | 200 | 2.6 | 3.5 | 0.00 | 0.00 | 0.00 | 84 | 1012.8 |
| 20260508005243 | 49 | 200 | 2.6 | 4.3 | 0.00 | 0.00 | 0.00 | 83 | 1012.8 |
| 20260508004744 | 49 | 200 | 2.6 | 4.3 | 0.00 | 0.00 | 0.00 | 83 | 1012.8 |
| 20260508004242 | 49 | 200 | 2.6 | 4.3 | 0.00 | 0.00 | 0.00 | 83 | 1012.8 |
| 20260508003743 | 49 | 202 | 2.6 | 4.3 | 0.00 | 0.00 | 0.00 | 83 | 1012.9 |
| 20260508003242 | 49 | 200 | 2.6 | 4.3 | 0.00 | 0.00 | 0.00 | 83 | 1012.9 |
| 20260508002742 | 49 | 200 | 2.6 | 5.2 | 0.00 | 0.00 | 0.00 | 83 | 1012.8 |
| 20260508002242 | 49 | 202 | 2.6 | 5.2 | 0.00 | 0.00 | 0.00 | 82 | 1012.9 |
| 20260508001742 | 49 | 200 | 3.5 | 5.2 | 0.00 | 0.00 | 0.00 | 82 | 1012.9 |
| 20260508001242 | 49 | 197 | 3.5 | 5.2 | 0.00 | 0.00 | 0.00 | 82 | 1013.0 |
| 20260508000742 | 50 | 197 | 3.5 | 5.2 | 0.00 | 0.00 | 0.00 | 82 | 1013.0 |
| 20260508000242 | 50 | 195 | 2.6 | 6.1 | 0.00 | 0.00 | 0.00 | 82 | 1013.0 |
| 20260507235741 | 50 | 200 | 3.5 | 6.1 | 0.00 | 0.00 | 0.00 | 82 | 1013.0 |
| 20260507235241 | 50 | 206 | 2.6 | 6.1 | 0.00 | 0.00 | 0.00 | 82 | 1013.0 |
| 20260507234741 | 50 | 207 | 3.5 | 6.1 | 0.00 | 0.00 | 0.00 | 82 | 1013.0 |
| 20260507233741 | 50 | 220 | 2.6 | 6.1 | 0.00 | 0.00 | 0.00 | 82 | 1013.0 |
| 20260507233241 | 50 | 182 | 2.6 | 6.1 | 0.00 | 0.00 | 0.00 | 82 | 1013.0 |
| 20260507232742 | 50 | 175 | 3.5 | 6.1 | 0.00 | 0.00 | 0.00 | 82 | 1013.0 |
| 20260507232241 | 50 | 180 | 3.5 | 5.2 | 0.00 | 0.00 | 0.00 | 82 | 1013.0 |
| 20260507231740 | 50 | 193 | 1.7 | 5.2 | 0.00 | 0.00 | 0.00 | 81 | 1013.1 |
| 20260507231241 | 50 | 195 | 2.6 | 5.2 | 0.00 | 0.00 | 0.00 | 81 | 1013.1 |
| 20260507230740 | 50 | 189 | 3.5 | 5.2 | 0.00 | 0.00 | 0.00 | 81 | 1013.0 |
| 20260507230240 | 50 | 196 | 2.6 | 5.2 | 0.00 | 0.00 | 0.00 | 81 | 1013.0 |
| 20260507225740 | 50 | 195 | 3.5 | 5.2 | 0.00 | 0.00 | 0.00 | 81 | 1013.0 |
| 20260507225242 | 51 | 196 | 2.6 | 5.2 | 0.00 | 0.00 | 0.00 | 81 | 1013.0 |
| 20260507224739 | 51 | 195 | 3.5 | 7.8 | 0.00 | 0.00 | 0.00 | 81 | 1013.0 |
| 20260507224239 | 51 | 180 | 4.3 | 7.8 | 0.00 | 0.00 | 0.00 | 81 | 1012.9 |
| 20260507223739 | 51 | 185 | 4.3 | 8.7 | 0.00 | 0.00 | 0.00 | 81 | 1012.9 |
| 20260507223239 | 51 | 168 | 3.5 | 8.7 | 0.00 | 0.00 | 0.00 | 80 | 1012.9 |
| 20260507223009 | 51 | 171 | 3.5 | 8.7 | 0.00 | 0.00 | 0.00 | 80 | 1012.9 |
| 20260507222239 | 51 | 164 | 4.3 | 8.7 | 0.00 | 0.00 | 0.00 | 80 | 1012.9 |
| 20260507222006 | 51 | 159 | 4.3 | 8.7 | 0.00 | 0.00 | 0.00 | 80 | 1012.9 |
| 20260507221238 | 51 | 165 | 2.6 | 9.6 | 0.00 | 0.00 | 0.00 | 80 | 1013.0 |
| 20260507220739 | 51 | 173 | 4.3 | 9.6 | 0.00 | 0.00 | 0.00 | 80 | 1013.0 |
| 20260507220240 | 51 | 176 | 3.5 | 9.6 | 0.00 | 0.00 | 0.00 | 80 | 1012.9 |
| 20260507215239 | 51 | 154 | 4.3 | 11.3 | 0.00 | 0.00 | 0.00 | 79 | 1012.9 |
| 20260507214739 | 51 | 165 | 5.2 | 11.3 | 0.00 | 0.00 | 0.00 | 79 | 1013.0 |
| 20260507214238 | 51 | 157 | 6.1 | 11.3 | 0.00 | 0.00 | 0.00 | 79 | 1013.0 |
| 20260507213738 | 51 | 157 | 4.3 | 9.6 | 0.00 | 0.00 | 0.00 | 79 | 1012.9 |
| 20260507213237 | 51 | 158 | 5.2 | 11.3 | 0.00 | 0.00 | 0.00 | 79 | 1013.0 |
| 20260507212738 | 51 | 140 | 4.3 | 11.3 | 0.00 | 0.00 | 0.00 | 78 | 1012.9 |
| 20260507212458 | 51 | 180 | 5.2 | 7.8 | 0.00 | 0.00 | 0.00 | 78 | 1012.9 |
| 20260507211736 | 52 | 151 | 3.5 | 8.7 | 0.00 | 0.00 | 0.00 | 78 | 1012.9 |
| 20260507211237 | 52 | 169 | 4.3 | 8.7 | 0.00 | 0.00 | 0.00 | 78 | 1012.9 |
| 20260507210738 | 52 | 161 | 4.3 | 11.3 | 0.00 | 0.00 | 0.00 | 77 | 1012.8 |
| 20260507210237 | 52 | 135 | 6.1 | 11.3 | 0.00 | 0.00 | 0.00 | 77 | 1012.8 |
| 20260507205737 | 52 | 165 | 2.6 | 10.4 | 0.00 | 0.00 | 0.00 | 77 | 1012.8 |
| 20260507205237 | 52 | 157 | 7.0 | 10.4 | 0.00 | 0.00 | 0.00 | 76 | 1012.7 |
| 20260507204737 | 52 | 148 | 4.3 | 10.4 | 0.00 | 0.00 | 0.00 | 76 | 1012.7 |
| 20260507203737 | 52 | 147 | 5.2 | 8.7 | 0.00 | 0.00 | 0.00 | 75 | 1012.7 |
| 20260507203236 | 52 | 159 | 4.3 | 8.7 | 0.00 | 0.00 | 0.00 | 74 | 1012.7 |
| 20260507202737 | 52 | 152 | 4.3 | 8.7 | 0.00 | 0.00 | 0.00 | 74 | 1012.7 |
| 20260507202236 | 52 | 141 | 3.5 | 7.8 | 0.00 | 0.00 | 0.00 | 74 | 1012.6 |
| 20260507201738 | 52 | 137 | 5.2 | 7.8 | 0.00 | 0.00 | 0.00 | 74 | 1012.6 |
| 20260507201236 | 52 | 158 | 5.2 | 7.8 | 0.00 | 0.00 | 0.00 | 74 | 1012.5 |
| 20260507200737 | 52 | 158 | 3.5 | 7.8 | 0.00 | 0.00 | 0.00 | 74 | 1012.4 |
| 20260507200503 | 52 | 151 | 3.5 | 7.8 | 0.00 | 0.00 | 0.00 | 73 | 1012.4 |
| 20260507195736 | 52 | 142 | 4.3 | 7.8 | 0.00 | 0.00 | 0.00 | 74 | 1012.3 |
| 20260507195238 | 52 | 165 | 4.3 | 7.8 | 0.00 | 0.00 | 0.00 | 74 | 1012.4 |
| 20260507194737 | 52 | 149 | 3.5 | 6.1 | 0.00 | 0.00 | 0.00 | 74 | 1012.4 |
| 20260507194458 | 53 | 149 | 3.5 | 6.1 | 0.00 | 0.00 | 0.00 | 74 | 1012.3 |
| 20260507193737 | 53 | 161 | 3.5 | 6.1 | 0.00 | 0.00 | 0.00 | 73 | 1012.2 |
| 20260507193237 | 53 | 151 | 3.5 | 6.1 | 0.00 | 0.00 | 0.00 | 74 | 1012.2 |
| 20260507192736 | 53 | 149 | 4.3 | 7.8 | 0.00 | 0.00 | 0.00 | 74 | 1012.1 |
| 20260507192236 | 53 | 140 | 4.3 | 7.8 | 0.00 | 0.00 | 0.00 | 73 | 1012.2 |
| 20260507191739 | 53 | 148 | 3.5 | 6.1 | 0.00 | 0.00 | 0.00 | 73 | 1012.1 |
| 20260507191236 | 53 | 144 | 3.5 | 6.1 | 0.00 | 0.00 | 0.00 | 74 | 1012.1 |
| 20260507190736 | 53 | 154 | 4.3 | 7.8 | 0.00 | 0.00 | 0.00 | 73 | 1012.1 |
| 20260507190236 | 53 | 151 | 3.5 | 7.8 | 0.00 | 0.00 | 0.00 | 73 | 1012.1 |
| 20260507185737 | 53 | 151 | 3.5 | 6.1 | 0.00 | 0.00 | 0.00 | 73 | 1012.0 |
| 20260507185237 | 54 | 154 | 3.5 | 7.8 | 0.00 | 0.00 | 0.00 | 73 | 1012.1 |
| 20260507184737 | 54 | 149 | 3.5 | 7.8 | 0.00 | 0.00 | 0.00 | 72 | 1012.0 |
| 20260507184236 | 54 | 144 | 3.5 | 7.8 | 0.00 | 0.00 | 0.00 | 72 | 1012.0 |
| 20260507183736 | 54 | 137 | 3.5 | 6.1 | 0.00 | 0.00 | 0.00 | 72 | 1012.0 |
| 20260507183237 | 54 | 144 | 2.6 | 7.8 | 0.00 | 0.00 | 0.00 | 72 | 1012.0 |
| 20260507182735 | 54 | 134 | 3.5 | 7.8 | 0.00 | 0.00 | 0.00 | 71 | 1012.0 |
| 20260507182235 | 54 | 131 | 4.3 | 7.8 | 0.00 | 0.00 | 0.00 | 70 | 1011.9 |
| 20260507181733 | 54 | 149 | 2.6 | 7.8 | 0.00 | 0.00 | 0.00 | 71 | 1012.0 |
| 20260507181234 | 54 | 149 | 3.5 | 8.7 | 0.00 | 0.00 | 0.00 | 70 | 1011.9 |
| 20260507180733 | 55 | 151 | 3.5 | 8.7 | 0.00 | 0.00 | 0.00 | 71 | 1011.9 |
| 20260507180233 | 55 | 151 | 3.5 | 6.1 | 0.00 | 0.00 | 0.00 | 71 | 1011.8 |
| 20260507175954 | 55 | 154 | 3.5 | 6.1 | 0.00 | 0.00 | 0.00 | 70 | 1011.9 |
| 20260507175233 | 55 | 148 | 3.5 | 6.1 | 0.00 | 0.00 | 0.00 | 70 | 1011.9 |
| 20260507174733 | 55 | 159 | 3.5 | 7.8 | 0.00 | 0.00 | 0.00 | 71 | 1011.9 |
| 20260507174233 | 55 | 157 | 3.5 | 7.8 | 0.00 | 0.00 | 0.00 | 71 | 1011.9 |
| 20260507173732 | 55 | 155 | 4.3 | 7.8 | 0.00 | 0.00 | 0.00 | 71 | 1011.9 |
| 20260507173232 | 55 | 168 | 3.5 | 7.8 | 0.00 | 0.00 | 0.00 | 71 | 1012.0 |
| 20260507172732 | 55 | 169 | 3.5 | 7.8 | 0.00 | 0.00 | 0.00 | 70 | 1011.9 |
| 20260507172232 | 56 | 164 | 4.3 | 6.1 | 0.00 | 0.00 | 0.00 | 69 | 1012.0 |
| 20260507171733 | 56 | 176 | 3.5 | 8.7 | 0.00 | 0.00 | 0.00 | 69 | 1011.9 |
| 20260507171232 | 56 | 149 | 5.2 | 8.7 | 0.00 | 0.00 | 0.00 | 69 | 1012.0 |
| 20260507170732 | 56 | 144 | 2.6 | 6.1 | 0.00 | 0.00 | 0.00 | 70 | 1012.0 |
| 20260507170232 | 56 | 137 | 3.5 | 6.1 | 0.00 | 0.00 | 0.00 | 72 | 1011.9 |
| 20260507165731 | 55 | 124 | 5.2 | 6.1 | 0.00 | 0.00 | 0.00 | 73 | 1011.8 |
| 20260507165231 | 54 | 140 | 3.5 | 6.1 | 0.00 | 0.00 | 0.00 | 74 | 1012.0 |
| 20260507164731 | 54 | 144 | 3.5 | 6.1 | 0.00 | 0.00 | 0.00 | 74 | 1012.0 |
| 20260507164231 | 53 | 152 | 2.6 | 4.3 | 0.00 | 0.00 | 0.00 | 75 | 1012.1 |
| 20260507163731 | 53 | 152 | 2.6 | 3.5 | 0.00 | 0.00 | 0.00 | 75 | 1012.1 |
| 20260507163452 | 53 | 152 | 1.7 | 4.3 | 0.00 | 0.00 | 0.00 | 75 | 1012.2 |
| 20260507162730 | 53 | 152 | 1.7 | 4.3 | 0.00 | 0.00 | 0.00 | 75 | 1012.2 |
| 20260507162231 | 53 | 152 | 1.7 | 3.5 | 0.00 | 0.00 | 0.00 | 75 | 1012.2 |
| 20260507161731 | 54 | 154 | 1.7 | 6.1 | 0.00 | 0.00 | 0.00 | 75 | 1012.2 |
| 20260507161456 | 54 | 152 | 2.6 | 6.1 | 0.00 | 0.00 | 0.00 | 74 | 1012.2 |
| 20260507160729 | 54 | 155 | 2.6 | 5.2 | 0.00 | 0.00 | 0.00 | 75 | 1012.2 |
| 20260507160230 | 54 | 158 | 2.6 | 5.2 | 0.00 | 0.00 | 0.00 | 74 | 1012.3 |
| 20260507155730 | 54 | 159 | 2.6 | 5.2 | 0.00 | 0.00 | 0.00 | 74 | 1012.3 |
| 20260507155230 | 54 | 159 | 2.6 | 4.3 | 0.00 | 0.00 | 0.00 | 74 | 1012.4 |
| 20260507154731 | 54 | 161 | 1.7 | 3.5 | 0.00 | 0.00 | 0.00 | 74 | 1012.3 |
| 20260507154230 | 54 | 161 | 1.7 | 4.3 | 0.00 | 0.00 | 0.00 | 74 | 1012.4 |
| 20260507153729 | 54 | 161 | 1.7 | 4.3 | 0.00 | 0.00 | 0.00 | 73 | 1012.4 |
| 20260507153230 | 54 | 161 | 2.6 | 4.3 | 0.00 | 0.00 | 0.00 | 73 | 1012.4 |
| 20260507152729 | 55 | 161 | 1.7 | 5.2 | 0.00 | 0.00 | 0.00 | 72 | 1012.4 |
| 20260507152229 | 55 | 158 | 4.3 | 6.1 | 0.00 | 0.00 | 0.00 | 71 | 1012.5 |
| 20260507151729 | 56 | 147 | 3.5 | 6.1 | 0.00 | 0.00 | 0.00 | 71 | 1012.6 |
| 20260507151229 | 56 | 169 | 1.7 | 5.2 | 0.00 | 0.00 | 0.00 | 71 | 1012.4 |
| 20260507150229 | 56 | 152 | 2.6 | 6.1 | 0.00 | 0.00 | 0.00 | 69 | 1012.5 |
| 20260507145728 | 57 | 127 | 3.5 | 6.1 | 0.00 | 0.00 | 0.00 | 69 | 1012.5 |
| 20260507145449 | 57 | 188 | 4.3 | 7.8 | 0.00 | 0.00 | 0.00 | 70 | 1012.6 |
| 20260507144728 | 57 | 186 | 3.5 | 7.8 | 0.00 | 0.00 | 0.00 | 71 | 1012.5 |
| 20260507144228 | 57 | 195 | 3.5 | 8.7 | 0.00 | 0.00 | 0.00 | 70 | 1012.6 |
| 20260507143728 | 57 | 189 | 5.2 | 8.7 | 0.00 | 0.00 | 0.00 | 70 | 1012.7 |
| 20260507143228 | 57 | 178 | 1.7 | 6.1 | 0.00 | 0.00 | 0.00 | 71 | 1012.6 |
| 20260507142728 | 57 | 154 | 4.3 | 9.6 | 0.00 | 0.00 | 0.00 | 70 | 1012.7 |
| 20260507142228 | 57 | 144 | 3.5 | 9.6 | 0.00 | 0.00 | 0.00 | 71 | 1012.8 |
| 20260507141733 | 56 | 161 | 4.3 | 9.6 | 0.00 | 0.00 | 0.00 | 70 | 1012.8 |
| 20260507141231 | 55 | 173 | 3.5 | 8.7 | 0.00 | 0.00 | 0.00 | 72 | 1012.9 |
| 20260507140733 | 55 | 140 | 3.5 | 8.7 | 0.00 | 0.00 | 0.00 | 72 | 1012.9 |
| 20260507140227 | 55 | 137 | 4.3 | 6.1 | 0.00 | 0.00 | 0.00 | 73 | 1013.0 |
| 20260507135727 | 55 | 196 | 4.3 | 6.1 | 0.00 | 0.00 | 0.00 | 75 | 1013.1 |
| 20260507135227 | 54 | 171 | 3.5 | 6.1 | 0.00 | 0.00 | 0.00 | 76 | 1013.0 |
| 20260507134729 | 54 | 165 | 1.7 | 6.1 | 0.00 | 0.00 | 0.00 | 76 | 1013.1 |
| 20260507134227 | 53 | 164 | 4.3 | 7.8 | 0.00 | 0.00 | 0.00 | 76 | 1013.1 |
| 20260507133726 | 53 | 141 | 5.2 | 7.8 | 0.00 | 0.00 | 0.00 | 77 | 1013.1 |
| 20260507133227 | 53 | 188 | 3.5 | 8.7 | 0.00 | 0.00 | 0.00 | 76 | 1013.2 |
| 20260507132726 | 53 | 169 | 2.6 | 8.7 | 0.00 | 0.00 | 0.00 | 76 | 1013.2 |
| 20260507132226 | 53 | 171 | 4.3 | 8.7 | 0.00 | 0.00 | 0.00 | 76 | 1013.2 |
| 20260507131727 | 52 | 179 | 3.5 | 8.7 | 0.00 | 0.00 | 0.00 | 77 | 1013.2 |
| 20260507131228 | 52 | 159 | 4.3 | 8.7 | 0.00 | 0.00 | 0.00 | 77 | 1013.3 |
| 20260507130951 | 52 | 176 | 3.5 | 7.8 | 0.00 | 0.00 | 0.00 | 77 | 1013.2 |
| 20260507130226 | 52 | 199 | 4.3 | 7.8 | 0.00 | 0.00 | 0.00 | 77 | 1013.2 |
| 20260507125726 | 52 | 180 | 5.2 | 7.8 | 0.00 | 0.00 | 0.00 | 79 | 1013.4 |
| 20260507125227 | 52 | 164 | 2.6 | 7.8 | 0.00 | 0.00 | 0.00 | 79 | 1013.2 |
| 20260507124726 | 52 | 189 | 2.6 | 7.8 | 0.00 | 0.00 | 0.00 | 79 | 1013.2 |
| 20260507124226 | 51 | 162 | 4.3 | 6.1 | 0.00 | 0.00 | 0.00 | 79 | 1013.3 |
| 20260507123726 | 51 | 161 | 3.5 | 6.1 | 0.00 | 0.00 | 0.00 | 80 | 1013.3 |
| 20260507123226 | 51 | 185 | 3.5 | 4.3 | 0.00 | 0.00 | 0.00 | 81 | 1013.3 |
| 20260507122952 | 51 | 180 | 2.6 | 5.2 | 0.00 | 0.00 | 0.00 | 81 | 1013.3 |
| 20260507122225 | 51 | 179 | 1.7 | 8.7 | 0.00 | 0.00 | 0.00 | 80 | 1013.4 |
| 20260507121725 | 51 | 183 | 3.5 | 8.7 | 0.00 | 0.00 | 0.00 | 80 | 1013.4 |
| 20260507121224 | 51 | 165 | 5.2 | 8.7 | 0.00 | 0.00 | 0.00 | 80 | 1013.5 |
| 20260507120724 | 51 | 178 | 4.3 | 9.6 | 0.00 | 0.00 | 0.00 | 80 | 1013.5 |
| 20260507120227 | 51 | 155 | 3.5 | 11.3 | 0.00 | 0.00 | 0.00 | 80 | 1013.6 |
| 20260507115726 | 51 | 214 | 5.2 | 11.3 | 0.00 | 0.00 | 0.00 | 80 | 1013.5 |
| 20260507115224 | 51 | 188 | 2.6 | 7.8 | 0.00 | 0.00 | 0.00 | 80 | 1013.6 |
| 20260507114724 | 51 | 157 | 2.6 | 7.8 | 0.00 | 0.00 | 0.00 | 80 | 1013.5 |
| 20260507114224 | 51 | 147 | 5.2 | 7.8 | 0.00 | 0.00 | 0.00 | 79 | 1013.5 |
| 20260507113724 | 51 | 193 | 3.5 | 8.7 | 0.00 | 0.00 | 0.00 | 79 | 1013.5 |
| 20260507113446 | 51 | 155 | 5.2 | 8.7 | 0.00 | 0.00 | 0.00 | 79 | 1013.6 |
| 20260507112723 | 51 | 199 | 5.2 | 10.4 | 0.00 | 0.00 | 0.00 | 80 | 1013.6 |
| 20260507112222 | 51 | 199 | 4.3 | 10.4 | 0.00 | 0.00 | 0.00 | 79 | 1013.6 |
| 20260507111723 | 51 | 151 | 6.1 | 10.4 | 0.00 | 0.00 | 0.00 | 79 | 1013.6 |
| 20260507111224 | 51 | 193 | 4.3 | 10.4 | 0.00 | 0.00 | 0.00 | 79 | 1013.6 |
| 20260507110723 | 52 | 202 | 4.3 | 8.7 | 0.00 | 0.00 | 0.00 | 79 | 1013.7 |
| 20260507110236 | 52 | 161 | 4.3 | 10.4 | 0.00 | 0.00 | 0.00 | 79 | 1013.7 |
| 20260507105723 | 52 | 182 | 4.3 | 10.4 | 0.00 | 0.00 | 0.00 | 79 | 1013.7 |
| 20260507105223 | 52 | 197 | 3.5 | 9.6 | 0.00 | 0.00 | 0.00 | 80 | 1013.8 |
| 20260507104722 | 52 | 190 | 4.3 | 9.6 | 0.00 | 0.00 | 0.00 | 81 | 1013.7 |
| 20260507104444 | 51 | 171 | 3.5 | 10.4 | 0.00 | 0.00 | 0.00 | 81 | 1013.7 |
| 20260507103944 | 51 | 152 | 5.2 | 10.4 | 0.00 | 0.00 | 0.00 | 82 | 1013.7 |
| 20260507103220 | 51 | 152 | 5.2 | 9.6 | 0.00 | 0.00 | 0.00 | 82 | 1013.8 |
| 20260507102720 | 51 | 148 | 4.3 | 8.7 | 0.00 | 0.00 | 0.00 | 83 | 1013.8 |
| 20260507102220 | 50 | 164 | 5.2 | 8.7 | 0.00 | 0.00 | 0.00 | 84 | 1013.7 |
| 20260507101720 | 50 | 179 | 4.3 | 7.8 | 0.00 | 0.00 | 0.00 | 84 | 1013.7 |
| 20260507101219 | 49 | 182 | 4.3 | 7.8 | 0.00 | 0.00 | 0.00 | 85 | 1013.7 |
| 20260507100719 | 49 | 180 | 3.5 | 7.8 | 0.00 | 0.00 | 0.00 | 85 | 1013.7 |
| 20260507100219 | 49 | 183 | 3.5 | 7.8 | 0.00 | 0.00 | 0.00 | 86 | 1013.7 |
| 20260507095718 | 49 | 151 | 4.3 | 7.8 | 0.00 | 0.00 | 0.00 | 86 | 1013.8 |
| 20260507095218 | 48 | 168 | 2.6 | 6.1 | 0.00 | 0.00 | 0.00 | 86 | 1013.8 |
| 20260507094718 | 48 | 168 | 3.5 | 6.1 | 0.00 | 0.00 | 0.00 | 86 | 1013.9 |
| 20260507094219 | 48 | 175 | 2.6 | 5.2 | 0.00 | 0.00 | 0.00 | 87 | 1013.7 |
| 20260507093718 | 48 | 188 | 3.5 | 4.3 | 0.00 | 0.00 | 0.00 | 87 | 1013.8 |
| 20260507093218 | 47 | 189 | 2.6 | 5.2 | 0.00 | 0.00 | 0.00 | 88 | 1013.9 |
| 20260507092942 | 47 | 193 | 3.5 | 5.2 | 0.00 | 0.00 | 0.00 | 88 | 1013.7 |
| 20260507092442 | 47 | 158 | 2.6 | 6.1 | 0.00 | 0.00 | 0.00 | 88 | 1013.7 |
| 20260507091718 | 46 | 155 | 2.6 | 6.1 | 0.00 | 0.00 | 0.00 | 89 | 1013.7 |
| 20260507091218 | 46 | 155 | 3.5 | 6.1 | 0.00 | 0.00 | 0.00 | 89 | 1013.7 |
| 20260507090718 | 46 | 186 | 3.5 | 6.1 | 0.00 | 0.00 | 0.00 | 89 | 1013.7 |
| 20260507090218 | 46 | 159 | 4.3 | 5.2 | 0.00 | 0.00 | 0.00 | 89 | 1013.7 |
| 20260507085717 | 45 | 161 | 2.6 | 3.5 | 0.00 | 0.00 | 0.00 | 89 | 1013.7 |
| 20260507085217 | 45 | 159 | 1.7 | 4.3 | 0.00 | 0.00 | 0.00 | 89 | 1013.8 |
| 20260507084941 | 45 | 159 | 3.5 | 4.3 | 0.00 | 0.00 | 0.00 | 89 | 1013.7 |
| 20260507084217 | 45 | 161 | 2.6 | 4.3 | 0.00 | 0.00 | 0.00 | 89 | 1013.7 |
| 20260507083717 | 45 | 154 | 2.6 | 5.2 | 0.00 | 0.00 | 0.00 | 89 | 1013.8 |
| 20260507083217 | 44 | 152 | 2.6 | 5.2 | 0.00 | 0.00 | 0.00 | 89 | 1013.8 |
| 20260507082714 | 44 | 152 | 2.6 | 5.2 | 0.00 | 0.00 | 0.00 | 89 | 1013.6 |
| 20260507082214 | 44 | 152 | 2.6 | 5.2 | 0.00 | 0.00 | 0.00 | 89 | 1013.7 |
| 20260507081937 | 44 | 154 | 1.7 | 5.2 | 0.00 | 0.00 | 0.00 | 89 | 1013.7 |
| 20260507081215 | 44 | 158 | 2.6 | 5.2 | 0.00 | 0.00 | 0.00 | 89 | 1013.7 |